Theta_e
294 295 294 295 296 296 296 298 299 299 300 301 302 304 307 311 324 327 325 321 317 315 313 311 310 309 307 306 307 306 305 306 304 305 307 308 308 308 307 307 306 306 305
295 295 294 295 295 295 296 297 298 299 300 300 301 302 305 309 319 325 322 321 319 314 312 311 311 310 307 307 306 305 305 306 306 305 303 304 307 307 306 305 304 304 303
295 294 295 295 295 294 295 296 297 299 300 301 300 301 303 307 313 326 324 320 318 316 314 312 310 308 306 306 305 304 303 302 302 302 300 301 302 304 304 304 303 303 303
295 294 295 295 295 294 295 295 296 297 298 300 301 301 303 307 311 324 323 321 320 319 315 313 310 308 307 305 304 302 300 299 300 300 300 299 300 301 302 300 300 300 300
294 294 294 295 296 296 295 294 295 295 297 300 301 301 303 306 311 323 323 320 319 315 314 312 309 310 310 306 303 300 300 299 299 298 297 297 298 299 300 300 298 297 300
294 294 295 295 296 295 294 293 293 295 296 301 302 302 302 307 309 315 323 322 319 314 310 310 308 311 309 308 306 304 303 301 299 298 297 298 298 299 300 299 297 296 295
293 294 295 295 295 293 292 292 292 297 300 304 305 303 302 308 309 309 314 319 315 311 309 309 309 309 307 306 306 306 305 304 303 301 300 299 299 300 300 298 298 297 296
293 293 294 295 294 293 291 290 291 293 293 295 299 304 307 312 307 306 309 315 312 310 309 309 307 305 305 306 305 304 304 305 305 302 303 302 302 301 300 300 299 298 297
292 293 293 295 294 292 290 289 290 290 289 289 292 293 295 301 304 304 308 309 306 304 304 302 301 300 301 301 305 302 300 299 301 301 300 298 297 297 299 298 296 295 295
292 293 293 295 294 291 291 290 289 289 288 289 289 288 292 293 296 300 306 304 299 296 297 297 297 296 296 297 299 298 296 295 296 296 295 296 296 297 296 299 297 295 295
293 292 293 295 294 292 291 291 290 288 288 288 287 288 287 288 292 295 298 299 296 295 294 293 294 295 294 294 295 296 294 294 294 294 294 296 297 298 299 299 298 297 297
292 291 292 294 294 293 291 290 290 288 287 286 286 286 287 285 289 291 293 294 295 293 292 292 293 293 293 293 294 293 293 294 293 293 294 295 295 297 298 299 300 300 300
290 290 290 292 294 293 291 288 288 288 287 286 286 285 285 285 285 288 290 292 293 291 292 292 292 292 292 293 293 294 294 294 294 294 294 295 296 298 299 299 300 301 302
289 289 290 290 292 293 292 291 289 288 287 287 286 285 285 286 286 287 288 290 291 290 291 293 293 293 294 295 295 295 295 296 296 295 294 295 297 296 295 297 296 297 297
289 289 289 289 290 291 292 291 290 290 290 288 287 287 286 285 288 290 290 290 290 290 291 293 293 294 294 294 294 295 295 294 293 294 293 293 293 294 294 296 296 296 295
288 288 288 288 288 289 290 291 292 291 290 289 289 289 289 289 289 289 290 289 290 290 291 290 290 291 291 292 292 292 293 293 294 294 293 293 292 292 293 294 295 294 294
287 288 287 288 288 287 287 289 288 290 290 290 289 289 289 289 289 289 289 289 289 289 288 288 289 289 290 290 291 291 291 292 293 293 293 292 292 292 292 292 293 293 293
288 289 286 286 287 286 286 286 287 287 287 286 288 288 288 288 288 288 288 288 286 287 287 287 288 289 289 289 290 290 291 291 291 291 291 292 292 291 291 291 292 292 293
288 288 287 286 286 287 286 285 285 285 285 286 286 287 286 286 287 287 287 285 285 285 286 286 288 288 289 289 289 290 290 290 290 290 290 291 291 291 290 291 292 288 289
288 288 287 286 285 285 285 285 284 284 284 283 284 284 285 285 284 284 286 286 284 285 286 286 286 287 288 289 289 289 289 289 289 289 289 289 290 291 291 291 292 291 292
287 287 283 286 286 286 285 284 284 284 283 282 283 284 282 284 283 283 283 284 284 284 284 285 286 286 287 287 287 288 289 288 289 289 288 288 289 288 290 291 291 292 292
288 287 286 285 286 286 286 286 285 284 284 283 282 283 282 283 283 282 283 284 284 285 285 285 286 285 285 285 286 287 288 288 288 289 289 289 289 290 290 289 289 291 292
289 288 287 286 286 284 286 287 284 284 284 284 282 282 282 282 282 282 283 283 284 284 285 285 285 285 285 285 286 287 286 288 289 289 288 288 289 289 289 288 289 289 290
289 289 287 286 285 285 285 286 285 283 283 283 282 281 281 281 282 282 283 283 283 283 284 284 284 284 285 286 286 287 288 289 289 289 289 289 288 288 289 288 288 290 291
292 290 288 286 285 284 285 286 285 284 283 282 281 280 280 281 281 281 282 282 282 282 283 284 284 284 285 285 285 285 286 285 287 286 288 288 288 288 289 288 288 288 289
292 290 288 287 285 285 285 286 285 283 282 281 280 280 280 280 280 280 281 281 281 281 282 283 284 284 284 284 285 285 284 284 285 284 286 287 287 287 287 287 287 287 287
Wind_Speed
17 17 18 20 21 17 16 16 16 18 20 20 19 17 17 16 19 14 13 13 12 11 10 9 6 8 5 5 1 1 2 2 3 2 2 2 3 3 3 4 5 5 6
15 17 18 18 18 20 20 20 20 19 17 21 20 20 18 17 18 16 16 15 14 15 17 19 20 10 12 10 8 10 6 4 3 4 2 2 1 2 2 3 4 5 7
19 18 17 18 20 21 21 22 20 20 20 20 21 20 19 18 17 18 18 17 19 18 18 16 13 16 15 12 11 10 7 5 4 3 3 1 1 2 2 3 3 5 5
17 16 17 18 18 21 20 22 23 20 20 21 20 21 21 19 18 18 18 19 18 16 16 15 14 15 16 14 10 8 8 8 6 4 2 2 1 2 2 1 4 4 7
16 17 20 19 19 19 18 21 20 22 21 22 22 22 21 19 14 21 20 19 18 16 17 16 15 17 19 16 9 8 8 5 6 5 3 2 2 1 1 1 2 4 5
15 16 19 22 22 21 20 21 21 22 22 22 21 20 21 15 22 25 22 19 18 18 16 14 14 19 17 17 14 16 12 9 6 5 3 3 2 2 2 1 1 2 4
14 15 17 21 21 21 21 20 24 22 23 23 15 16 19 18 25 21 25 17 17 17 18 15 14 11 15 11 15 14 11 10 9 6 5 3 4 5 4 2 2 2 3
14 15 16 18 20 20 20 20 21 22 23 21 20 13 15 15 18 20 18 14 14 16 17 17 14 14 13 14 12 10 8 6 7 5 5 5 3 4 3 2 2 3 5
14 14 16 15 19 19 19 19 19 19 19 21 20 22 23 18 8 21 18 13 16 15 14 17 13 11 14 17 12 11 10 9 12 12 10 8 6 4 4 2 6 6 5
14 13 13 12 15 16 17 16 17 18 20 17 20 21 30 23 32 9 16 12 17 15 14 18 23 17 21 17 11 9 9 6 5 4 3 3 2 1 3 5 5 6 4
13 12 12 9 11 14 14 15 17 18 19 19 19 20 23 24 25 32 16 12 12 13 13 11 9 21 20 16 13 7 7 5 4 4 3 3 2 2 2 3 4 5 4
11 11 12 9 9 10 14 15 16 16 16 17 18 17 15 18 28 29 29 30 21 12 10 8 9 16 15 14 10 11 11 8 4 3 3 2 1 1 1 2 4 5 5
11 12 11 10 7 9 12 13 11 14 13 14 13 12 12 13 12 23 26 26 23 12 8 9 12 11 12 11 11 10 11 6 4 4 3 3 1 1 2 3 3 5 5
11 12 10 10 10 7 7 8 9 10 11 11 13 13 11 10 10 9 8 10 13 11 9 9 9 9 9 9 9 8 5 5 4 3 2 1 0 1 2 2 3 4 4
9 10 11 8 9 8 5 7 8 9 10 9 10 10 11 11 12 18 14 9 8 9 7 8 8 8 9 7 6 5 4 3 3 2 2 1 1 1 1 1 2 3 3
8 8 8 8 8 8 6 4 8 10 14 17 17 13 9 17 21 22 19 19 16 12 8 8 8 8 7 5 4 4 4 3 2 1 1 0 1 2 3 4 3 4 4
7 8 7 9 8 8 8 7 7 8 12 14 16 18 19 18 19 20 17 14 18 13 8 7 7 7 6 5 4 4 3 3 3 2 1 1 1 2 2 4 4 4 4
7 13 6 6 7 7 7 8 8 8 8 8 11 13 17 18 18 18 18 12 9 9 7 7 6 5 5 4 4 3 3 3 3 2 2 2 1 1 2 3 3 4 5
6 6 5 5 6 7 6 7 7 8 8 8 8 9 12 14 12 11 11 8 8 8 8 7 7 6 5 4 3 3 3 3 3 3 3 3 3 3 3 4 4 5 4
5 10 7 5 5 6 6 7 7 7 8 8 7 8 8 8 8 9 7 8 8 6 6 6 6 5 5 5 4 4 3 3 3 2 2 3 4 4 5 4 4 5 5
2 4 5 5 6 5 5 6 7 7 7 8 9 9 12 8 8 8 8 8 8 8 8 7 6 6 6 7 6 5 2 4 5 4 3 4 3 4 5 4 5 5 5
0 3 4 5 5 6 6 6 7 7 8 9 9 9 10 8 8 8 9 9 9 10 9 8 7 7 8 7 7 6 4 4 5 4 3 3 4 4 4 6 6 5 6
0 2 4 5 5 5 5 4 6 9 10 9 9 10 9 8 8 8 9 9 8 8 8 7 7 6 5 6 6 6 5 5 4 3 4 4 3 4 4 6 6 5 4
1 0 2 3 4 5 6 8 6 8 8 9 9 8 7 7 8 9 8 8 8 9 7 7 7 9 9 7 6 6 6 5 3 5 5 3 4 4 4 6 6 7 5
2 1 2 4 5 5 6 6 8 9 9 9 9 9 9 9 9 9 9 9 9 8 9 9 8 11 11 12 12 11 9 6 7 6 4 5 7 7 4 3 5 5 6
2 1 2 4 5 5 6 6 7 8 9 10 9 9 10 10 10 11 11 11 10 11 12 9 10 13 15 11 12 10 7 7 7 6 5 5 5 5 5 7 8 7 7
Wind_Direction
338 334 329 326 322 318 310 307 305 303 298 294 292 289 286 279 273 203 184 174 167 153 140 142 171 153 173 121 195 110 170 145 151 168 191 137 144 119 68 41 22 6 343
335 332 331 326 322 316 313 307 306 301 295 293 289 286 281 278 278 203 180 180 174 167 171 173 184 168 145 169 178 195 192 166 156 174 145 140 152 79 70 62 14 352 347
339 337 328 322 325 323 316 310 303 298 297 293 285 278 278 278 280 216 187 186 174 185 179 180 180 165 162 176 190 180 154 146 127 149 138 156 104 45 18 26 353 341 336
340 335 330 330 324 320 314 311 308 298 291 287 278 273 271 266 265 231 198 190 190 189 176 169 168 173 172 173 176 163 146 134 126 125 121 125 90 69 71 5 346 334 326
339 336 343 335 331 322 316 315 307 301 293 282 274 272 264 257 252 244 200 192 182 172 170 172 164 173 176 162 156 152 145 126 130 133 126 156 118 80 345 68 295 322 319
335 343 342 342 336 335 329 323 318 309 295 283 269 264 260 254 256 222 199 198 188 175 163 161 152 161 153 148 152 153 152 140 145 137 137 143 162 188 185 200 276 341 343
325 332 339 345 342 342 336 336 335 334 332 325 274 257 257 253 254 195 192 188 178 170 150 156 148 143 139 142 148 150 144 132 136 132 138 166 175 199 163 201 209 243 264
326 335 334 342 347 349 347 348 355 347 352 352 354 324 264 254 203 178 178 172 155 151 142 139 135 136 139 141 139 137 127 110 117 128 137 150 175 169 172 201 266 270 259
330 337 335 343 347 352 354 358 357 357 357 358 355 12 11 359 191 149 144 146 126 117 117 111 110 107 127 128 129 123 115 112 91 101 107 110 125 176 210 220 252 267 278
333 334 330 340 349 355 359 3 8 5 3 1 4 12 16 16 14 19 132 125 117 107 94 94 103 108 95 97 106 116 130 111 126 119 108 98 112 241 283 221 245 248 269
328 333 336 339 350 4 356 3 15 13 2 2 4 12 16 15 24 22 46 103 98 92 108 107 100 99 100 104 113 114 96 112 95 115 130 139 143 152 191 196 215 229 231
327 338 343 337 357 3 7 7 6 17 7 360 5 12 12 14 16 22 30 52 63 79 65 83 100 104 108 108 100 117 125 123 127 129 134 142 187 159 291 297 260 246 248
340 345 344 346 0 4 13 11 12 10 13 5 5 4 8 14 15 17 27 45 51 61 56 74 85 90 98 96 122 124 127 134 154 148 165 161 180 271 338 296 278 282 277
345 348 345 350 353 12 12 15 14 13 9 10 4 4 7 15 15 18 20 39 46 57 55 57 69 79 78 96 110 124 125 145 145 144 134 93 291 348 3 352 306 306 301
348 350 350 354 351 352 21 18 25 21 24 12 10 4 6 15 17 23 30 20 22 32 52 59 57 69 81 81 86 103 116 115 127 135 136 117 58 325 323 320 289 300 290
360 355 353 354 355 359 357 18 357 14 20 20 15 22 7 18 20 23 24 28 27 23 51 54 59 60 61 59 65 75 82 79 78 115 109 90 324 328 329 322 309 311 304
5 360 355 1 356 359 359 2 1 356 13 11 8 14 17 16 19 21 19 22 25 26 38 40 51 52 49 42 38 48 46 29 30 37 36 26 355 323 303 309 320 314 299
4 8 1 358 358 3 1 1 358 350 348 359 2 4 5 5 10 15 13 17 27 29 28 30 37 34 32 20 8 11 4 9 14 1 5 2 11 315 303 299 303 301 293
2 358 356 354 355 358 358 359 1 356 357 355 353 5 2 359 8 15 11 26 18 17 10 9 11 12 2 348 352 352 344 344 341 353 350 344 341 323 304 291 291 287 288
1 359 6 354 349 354 358 359 359 1 360 355 359 1 354 352 9 6 7 12 15 2 355 355 351 350 344 332 327 317 320 340 341 334 332 336 318 305 295 294 289 290 287
358 1 346 352 355 346 350 358 351 351 359 355 350 346 346 357 354 359 358 354 353 353 344 338 329 335 337 331 326 311 307 333 322 297 292 286 283 295 301 293 288 294 294
307 350 1 9 353 356 346 352 355 353 349 352 348 343 341 357 347 346 345 342 344 347 342 335 329 338 329 322 313 315 303 294 291 288 296 271 264 268 295 297 288 301 284
37 358 355 359 358 351 346 329 352 352 347 346 344 341 346 345 339 335 335 335 336 333 319 322 314 311 302 289 300 307 299 281 264 299 286 277 284 261 246 269 284 280 289
164 304 334 350 352 350 346 338 360 351 348 341 339 336 332 325 322 319 320 326 327 329 317 305 304 305 302 295 286 293 292 293 283 270 285 285 282 265 241 269 280 278 273
283 318 348 346 347 344 337 332 350 347 343 342 336 334 333 332 330 331 333 329 326 317 313 314 316 315 307 308 305 297 293 282 271 272 268 272 251 250 249 249 267 289 285
309 24 350 342 342 335 327 329 344 344 339 337 334 331 331 330 331 331 330 327 324 321 319 317 309 310 311 308 305 300 282 273 280 274 273 265 255 237 242 246 251 262 259